WGS F6 (USA 244)

Last updated on Mon Oct 14 2024 00:02:39 GMT+0000 (Coordinated Universal Time)

1 39222U 13041A 24287.34668285 .00000088 00000+0 00000+0 0 9996 2 39222 0.0045 201.7000 0000217 44.9348 125.3851 1.00271195 39914
UTC large
Height (km)
Speed (km/s)
/
Latitude / Longitude
Inclination (degrees)
Orbital Period (minutes)
Azimuth
Elevation
Range (km)
Doppler Factor

Next 0 passes for location: London (51.5072 / 0.1276)

Sorry there are no passes over London.